• In Hungary
  • List of Countries
  • For 7 days
  • Water Temperature
  • Satellite Maps
  • Weather Map
  • News
  • Weather Widgets
  • user-avatar
    Login

    Hourly Weather Gorodischi

    Today, 24 September, Monday

    Time Temperature Precipitation Wind Pressure Humidity
    00:00 +7°C° 0 mm 4 mps 741 mmHg 87%
    01:00 +8°C° 0 mm 3 mps 741 mmHg 89%
    02:00 +7°C° 0 mm 3 mps 741 mmHg 90%
    03:00 +7°C° 0 mm 3 mps 741 mmHg 94%
    04:00 +5°C° 0 mm 3 mps 741 mmHg 94%
    05:00 +5°C° 0 mm 3 mps 741 mmHg 94%
    06:00 +5°C° 0 mm 3 mps 741 mmHg 95%
    07:00 +7°C° 0 mm 3 mps 741 mmHg 90%
    08:00 +9°C° 0 mm 3 mps 741 mmHg 85%
    09:00 +10°C° 0 mm 4 mps 741 mmHg 80%
    10:00 +10°C° 0 mm 5 mps 741 mmHg 75%
    11:00 +12°C° 0 mm 5 mps 740 mmHg 70%
    12:00 +13°C° 0 mm 6 mps 740 mmHg 65%
    13:00 +11°C° 0.4 mm 6 mps 739 mmHg 68%
    14:00 +10°C° 0.4 mm 7 mps 739 mmHg 72%
    15:00 +9°C° 0.4 mm 7 mps 738 mmHg 75%
    16:00 +9°C° 1 mm 8 mps 737 mmHg 78%
    17:00 +9°C° 1 mm 8 mps 736 mmHg 81%
    18:00 +8°C° 1 mm 9 mps 735 mmHg 84%
    19:00 +8°C° 0.8 mm 9 mps 734 mmHg 85%
    20:00 +10°C° 0.8 mm 9 mps 733 mmHg 85%
    21:00 +10°C° 0.8 mm 9 mps 732 mmHg 86%
    22:00 +10°C° 0.3 mm 9 mps 732 mmHg 86%
    23:00 +10°C° 0.3 mm 8 mps 732 mmHg 86%

    Tomorrow, 25 September, Tuesday

    Time Temperature Precipitation Wind Pressure Humidity
    00:00 +10°C° 0.3 mm 8 mps 731 mmHg 85%
    01:00 +9°C° 0 mm 8 mps 731 mmHg 85%
    02:00 +8°C° 0 mm 7 mps 731 mmHg 85%
    03:00 +6°C° 0 mm 7 mps 732 mmHg 85%
    04:00 +6°C° 0 mm 7 mps 732 mmHg 85%
    05:00 +6°C° 0 mm 7 mps 732 mmHg 84%
    06:00 +6°C° 0 mm 7 mps 732 mmHg 84%
    07:00 +6°C° 0 mm 7 mps 732 mmHg 83%
    08:00 +8°C° 0 mm 7 mps 733 mmHg 82%
    09:00 +8°C° 0 mm 7 mps 733 mmHg 80%
    10:00 +8°C° 0.1 mm 7 mps 734 mmHg 79%
    11:00 +8°C° 0.1 mm 7 mps 734 mmHg 78%
    12:00 +8°C° 0.1 mm 7 mps 735 mmHg 77%
    13:00 +8°C° 0.1 mm 7 mps 735 mmHg 77%
    14:00 +7°C° 0.1 mm 8 mps 736 mmHg 77%
    15:00 +7°C° 0.1 mm 8 mps 737 mmHg 77%
    16:00 +6°C° 0.2 mm 8 mps 737 mmHg 78%
    17:00 +6°C° 0.2 mm 8 mps 738 mmHg 79%
    18:00 +5°C° 0.2 mm 8 mps 738 mmHg 80%
    19:00 +5°C° 0.3 mm 8 mps 739 mmHg 80%
    20:00 +5°C° 0.3 mm 8 mps 740 mmHg 81%
    21:00 +4°C° 0.3 mm 8 mps 740 mmHg 82%
    22:00 +4°C° 0.4 mm 8 mps 741 mmHg 83%
    23:00 +4°C° 0.4 mm 7 mps 741 mmHg 83%

    Day after tomorrow, 26 September, Wednesday

    Time Temperature Precipitation Wind Pressure Humidity
    00:00 +4°C° 0.4 mm 7 mps 742 mmHg 83%
    01:00 +4°C° 0.2 mm 7 mps 742 mmHg 83%
    02:00 +4°C° 0.2 mm 6 mps 743 mmHg 83%
    03:00 +3°C° 0.2 mm 6 mps 744 mmHg 83%
    04:00 +3°C° 0 mm 6 mps 744 mmHg 84%
    05:00 +2°C° 0 mm 6 mps 745 mmHg 84%
    06:00 +1°C° 0 mm 6 mps 746 mmHg 85%
    07:00 +2°C° 0 mm 6 mps 747 mmHg 81%
    08:00 +2°C° 0 mm 6 mps 747 mmHg 77%
    09:00 +2°C° 0 mm 6 mps 748 mmHg 74%
    10:00 +3°C° 0 mm 6 mps 748 mmHg 68%
    11:00 +4°C° 0 mm 6 mps 749 mmHg 63%
    12:00 +5°C° 0 mm 6 mps 749 mmHg 57%
    13:00 +7°C° 0 mm 6 mps 749 mmHg 54%
    14:00 +7°C° 0 mm 5 mps 749 mmHg 52%
    15:00 +8°C° 0 mm 5 mps 749 mmHg 49%
    16:00 +7°C° 0 mm 4 mps 749 mmHg 54%
    17:00 +6°C° 0 mm 4 mps 749 mmHg 58%
    18:00 +5°C° 0 mm 3 mps 749 mmHg 63%
    19:00 +5°C° 0 mm 3 mps 749 mmHg 65%
    20:00 +4°C° 0 mm 4 mps 748 mmHg 66%
    21:00 +4°C° 0 mm 4 mps 748 mmHg 68%
    22:00 +3°C° 0 mm 5 mps 748 mmHg 69%
    23:00 +3°C° 0 mm 5 mps 747 mmHg 70%

    27 September, Thursday

    Time Temperature Precipitation Wind Pressure Humidity
    00:00 +3°C° 0 mm 6 mps 746 mmHg 71%
    01:00 +4°C° 0 mm 6 mps 746 mmHg 71%
    02:00 +4°C° 0 mm 7 mps 745 mmHg 71%
    03:00 +4°C° 0 mm 7 mps 744 mmHg 70%
    04:00 +4°C° 0.6 mm 8 mps 743 mmHg 73%
    05:00 +3°C° 0.6 mm 9 mps 742 mmHg 77%
    06:00 +3°C° 0.6 mm 9 mps 741 mmHg 80%
    07:00 +3°C° 1.2 mm 9 mps 740 mmHg 82%
    08:00 +3°C° 1.2 mm 9 mps 740 mmHg 84%
    09:00 +3°C° 1.2 mm 9 mps 739 mmHg 86%
    10:00 +5°C° 0.4 mm 9 mps 739 mmHg 85%
    11:00 +5°C° 0.4 mm 8 mps 739 mmHg 85%
    12:00 +6°C° 0.4 mm 8 mps 738 mmHg 85%
    13:00 +7°C° 0.1 mm 8 mps 738 mmHg 80%
    14:00 +9°C° 0.1 mm 8 mps 738 mmHg 75%
    15:00 +10°C° 0.1 mm 8 mps 738 mmHg 70%
    16:00 +9°C° 0.1 mm 7 mps 738 mmHg 73%
    17:00 +9°C° 0.1 mm 6 mps 738 mmHg 77%
    18:00 +8°C° 0.1 mm 5 mps 739 mmHg 80%
    19:00 +8°C° 0.3 mm 5 mps 739 mmHg 83%
    20:00 +8°C° 0.3 mm 5 mps 739 mmHg 86%
    21:00 +8°C° 0.3 mm 5 mps 739 mmHg 89%
    22:00 +7°C° 0.2 mm 5 mps 739 mmHg 89%
    23:00 +7°C° 0.2 mm 5 mps 739 mmHg 89%

    28 September, Friday

    Time Temperature Precipitation Wind Pressure Humidity
    00:00 +6°C° 0.2 mm 4 mps 739 mmHg 89%
    01:00 +6°C° 0 mm 4 mps 740 mmHg 89%
    02:00 +5°C° 0 mm 4 mps 740 mmHg 89%
    03:00 +5°C° 0 mm 4 mps 741 mmHg 90%
    04:00 +5°C° 0 mm 4 mps 741 mmHg 91%
    05:00 +4°C° 0 mm 4 mps 741 mmHg 92%
    06:00 +4°C° 0 mm 4 mps 741 mmHg 92%
    07:00 +5°C° 0 mm 4 mps 741 mmHg 88%
    08:00 +6°C° 0 mm 4 mps 741 mmHg 84%
    09:00 +7°C° 0 mm 4 mps 741 mmHg 80%
    10:00 +8°C° 0.1 mm 5 mps 741 mmHg 78%
    11:00 +9°C° 0.1 mm 5 mps 740 mmHg 76%
    12:00 +10°C° 0.1 mm 6 mps 740 mmHg 74%
    13:00 +11°C° 0.3 mm 7 mps 739 mmHg 77%
    14:00 +11°C° 0.3 mm 8 mps 738 mmHg 80%
    15:00 +11°C° 0.3 mm 9 mps 737 mmHg 83%
    16:00 +12°C° 0.1 mm 9 mps 737 mmHg 83%
    17:00 +12°C° 0.1 mm 9 mps 736 mmHg 83%
    18:00 +12°C° 0.1 mm 9 mps 736 mmHg 84%
    19:00 +12°C° 0.1 mm 9 mps 736 mmHg 84%
    20:00 +12°C° 0.1 mm 9 mps 736 mmHg 85%
    21:00 +12°C° 0.1 mm 8 mps 736 mmHg 86%
    22:00 +12°C° 0.2 mm 8 mps 736 mmHg 86%
    23:00 +11°C° 0.2 mm 7 mps 736 mmHg 87%

    29 September, Saturday

    Time Temperature Precipitation Wind Pressure Humidity
    00:00 +11°C° 0.2 mm 6 mps 736 mmHg 87%
    01:00 +10°C° 0.1 mm 6 mps 736 mmHg 88%
    02:00 +10°C° 0.1 mm 6 mps 737 mmHg 89%
    03:00 +9°C° 0.1 mm 6 mps 738 mmHg 90%
    04:00 +8°C° 0 mm 5 mps 738 mmHg 89%
    05:00 +6°C° 0 mm 5 mps 739 mmHg 88%
    06:00 +5°C° 0 mm 4 mps 740 mmHg 86%
    07:00 +5°C° 0 mm 4 mps 741 mmHg 83%
    08:00 +5°C° 0 mm 4 mps 741 mmHg 80%
    09:00 +6°C° 0 mm 4 mps 742 mmHg 77%
    10:00 +6°C° 0 mm 4 mps 743 mmHg 71%
    11:00 +7°C° 0 mm 4 mps 744 mmHg 65%
    12:00 +8°C° 0 mm 4 mps 744 mmHg 58%
    13:00 +8°C° 0 mm 4 mps 745 mmHg 56%
    14:00 +10°C° 0 mm 4 mps 745 mmHg 53%
    15:00 +10°C° 0 mm 4 mps 745 mmHg 51%
    16:00 +8°C° 0 mm 4 mps 746 mmHg 52%
    17:00 +8°C° 0 mm 3 mps 746 mmHg 54%
    18:00 +7°C° 0 mm 3 mps 746 mmHg 56%
    19:00 +7°C° 0 mm 3 mps 747 mmHg 58%
    20:00 +5°C° 0 mm 3 mps 748 mmHg 60%
    21:00 +5°C° 0 mm 2 mps 748 mmHg 62%
    22:00 +5°C° 0 mm 2 mps 749 mmHg 65%
    23:00 +4°C° 0 mm 2 mps 749 mmHg 68%
    Show more